| time (UTC) | temp C | wind direction | speed KPH | gust KPH | rain 1hr cm | rain 24hr cm | rain mn cm | humidity % | barometer mb |
| 20260902112703 | 16 | 274 | 4.8 | 14.5 | 0.00 | 0.46 | 0.03 | 75 | 1003.1 |
| 20260902111803 | 16 | 275 | 6.4 | 14.5 | 0.00 | 0.46 | 0.03 | 73 | 1003.0 |
| 20260902110903 | 16 | 284 | 8.0 | 14.5 | 0.00 | 0.46 | 0.03 | 74 | 1003.1 |
| 20260902110006 | 16 | 277 | 4.8 | 12.9 | 0.00 | 0.46 | 0.03 | 73 | 1003.0 |
| 20260902105403 | 16 | 216 | 4.8 | 12.9 | 0.00 | 0.46 | 0.03 | 76 | 1003.0 |
| 20260902104503 | 16 | 250 | 6.4 | 17.7 | 0.00 | 0.46 | 0.03 | 74 | 1003.1 |
| 20260902103603 | 16 | 283 | 8.0 | 19.3 | 0.00 | 0.46 | 0.03 | 74 | 1003.2 |
| 20260902102703 | 16 | 279 | 6.4 | 14.5 | 0.00 | 0.46 | 0.03 | 74 | 1003.1 |
| 20260902101803 | 16 | 267 | 6.4 | 17.7 | 0.00 | 0.46 | 0.03 | 74 | 1003.1 |
| 20260902100903 | 16 | 269 | 6.4 | 17.7 | 0.00 | 0.46 | 0.03 | 75 | 1003.1 |
| 20260902100003 | 16 | 269 | 6.4 | 14.5 | 0.00 | 0.46 | 0.03 | 75 | 1003.1 |
| 20260902095403 | 16 | 203 | 4.8 | 14.5 | 0.00 | 0.46 | 0.03 | 77 | 1003.1 |
| 20260902094503 | 15 | 229 | 6.4 | 16.1 | 0.00 | 0.46 | 0.03 | 79 | 1003.2 |
| 20260902093624 | 15 | 274 | 6.4 | 19.3 | 0.00 | 0.46 | 0.03 | 79 | 1003.2 |
| 20260902092724 | 15 | 181 | 4.8 | 12.9 | 0.00 | 0.46 | 0.03 | 83 | 1003.1 |
| 20260902091803 | 15 | 167 | 6.4 | 12.9 | 0.00 | 0.46 | 0.03 | 85 | 1003.1 |
| 20260902090903 | 14 | 189 | 4.8 | 14.5 | 0.00 | 0.46 | 0.03 | 85 | 1003.1 |
| 20260902090004 | 14 | 231 | 4.8 | 12.9 | 0.00 | 0.46 | 0.03 | 86 | 1003.1 |
| 20260902085403 | 14 | 178 | 4.8 | 16.1 | 0.00 | 0.46 | 0.03 | 87 | 1003.2 |
| 20260902084524 | 13 | 205 | 3.2 | 12.9 | 0.00 | 0.46 | 0.03 | 89 | 1003.1 |
| 20260902083603 | 13 | 204 | 4.8 | 12.9 | 0.00 | 0.46 | 0.03 | 89 | 1003.1 |
| 20260902082703 | 13 | 226 | 3.2 | 11.3 | 0.00 | 0.46 | 0.03 | 91 | 1003.1 |
| 20260902081824 | 13 | 207 | 4.8 | 12.9 | 0.00 | 0.46 | 0.03 | 92 | 1003.2 |
| 20260902080903 | 13 | 199 | 6.4 | 16.1 | 0.00 | 0.46 | 0.03 | 95 | 1003.0 |
| 20260902080003 | 12 | 201 | 3.2 | 11.3 | 0.00 | 0.46 | 0.03 | 96 | 1003.0 |
| 20260902075403 | 12 | 219 | 3.2 | 11.3 | 0.00 | 0.46 | 0.03 | 96 | 1003.0 |
| 20260902074503 | 12 | 214 | 3.2 | 12.9 | 0.00 | 0.46 | 0.03 | 96 | 1003.1 |
| 20260902073603 | 12 | 210 | 4.8 | 11.3 | 0.00 | 0.46 | 0.03 | 96 | 1003.0 |
| 20260902072703 | 12 | 194 | 4.8 | 9.7 | 0.00 | 0.46 | 0.03 | 96 | 1003.0 |
| 20260902071803 | 11 | 211 | 3.2 | 9.7 | 0.00 | 0.46 | 0.03 | 96 | 1002.9 |
| 20260902070903 | 11 | 218 | 3.2 | 11.3 | 0.00 | 0.46 | 0.03 | 96 | 1002.9 |
| 20260902070005 | 11 | 182 | 3.2 | 9.7 | 0.00 | 0.46 | 0.03 | 96 | 1002.9 |
| 20260902065403 | 11 | 204 | 4.8 | 11.3 | 0.00 | 0.46 | 0.03 | 97 | 1002.9 |
| 20260902064524 | 11 | 197 | 3.2 | 9.7 | 0.00 | 0.46 | 0.03 | 97 | 1002.8 |
| 20260902063603 | 11 | 200 | 4.8 | 11.3 | 0.00 | 0.46 | 0.03 | 96 | 1002.8 |
| 20260902062703 | 11 | 201 | 4.8 | 11.3 | 0.00 | 0.46 | 0.03 | 96 | 1002.7 |
| 20260902061803 | 11 | 166 | 3.2 | 9.7 | 0.00 | 0.46 | 0.03 | 96 | 1002.7 |
| 20260902060903 | 11 | 176 | 3.2 | 8.0 | 0.00 | 0.46 | 0.03 | 96 | 1002.6 |
| 20260902060024 | 11 | 181 | 3.2 | 8.0 | 0.00 | 0.46 | 0.03 | 97 | 1002.6 |
| 20260902055403 | 11 | 184 | 3.2 | 8.0 | 0.00 | 0.46 | 0.03 | 97 | 1002.6 |
| 20260902054503 | 11 | 200 | 4.8 | 11.3 | 0.00 | 0.46 | 0.03 | 96 | 1002.5 |
| 20260902053603 | 11 | 175 | 3.2 | 9.7 | 0.00 | 0.46 | 0.03 | 96 | 1002.4 |
| 20260902052703 | 10 | 175 | 1.6 | 9.7 | 0.00 | 0.46 | 0.03 | 96 | 1002.5 |
| 20260902051824 | 10 | 199 | 3.2 | 9.7 | 0.00 | 0.46 | 0.03 | 96 | 1002.4 |
| 20260902050903 | 10 | 211 | 4.8 | 9.7 | 0.00 | 0.46 | 0.03 | 96 | 1002.4 |
| 20260902050024 | 10 | 199 | 3.2 | 11.3 | 0.00 | 0.46 | 0.03 | 96 | 1002.4 |
| 20260902045403 | 10 | 204 | 3.2 | 11.3 | 0.00 | 0.46 | 0.03 | 96 | 1002.4 |
| 20260902044503 | 10 | 203 | 3.2 | 9.7 | 0.00 | 0.46 | 0.03 | 96 | 1002.4 |
| 20260902043603 | 10 | 184 | 3.2 | 9.7 | 0.00 | 0.46 | 0.03 | 96 | 1002.4 |
| 20260902042724 | 10 | 187 | 3.2 | 9.7 | 0.00 | 0.46 | 0.03 | 96 | 1002.3 |
| 20260902041803 | 10 | 199 | 1.6 | 9.7 | 0.00 | 0.46 | 0.03 | 96 | 1002.4 |
| 20260902040903 | 10 | 218 | 3.2 | 11.3 | 0.00 | 0.46 | 0.03 | 96 | 1002.4 |
| 20260902040003 | 10 | 287 | 1.6 | 4.8 | 0.00 | 0.46 | 0.03 | 96 | 1002.3 |
| 20260902035403 | 10 | 201 | 3.2 | 9.7 | 0.00 | 0.46 | 0.03 | 96 | 1002.3 |
| 20260902034503 | 10 | 205 | 1.6 | 9.7 | 0.00 | 0.46 | 0.03 | 96 | 1002.3 |
| 20260902033603 | 10 | 187 | 4.8 | 9.7 | 0.00 | 0.46 | 0.03 | 96 | 1002.4 |
| 20260902032703 | 10 | 180 | 1.6 | 8.0 | 0.00 | 0.46 | 0.03 | 96 | 1002.4 |
| 20260902031803 | 10 | 178 | 3.2 | 9.7 | 0.00 | 0.46 | 0.03 | 96 | 1002.4 |
| 20260902030903 | 10 | 177 | 3.2 | 8.0 | 0.00 | 0.46 | 0.03 | 96 | 1002.4 |
| 20260902030024 | 10 | 175 | 1.6 | 6.4 | 0.00 | 0.46 | 0.03 | 96 | 1002.4 |
| 20260902025403 | 10 | 175 | 1.6 | 6.4 | 0.00 | 0.46 | 0.03 | 96 | 1002.4 |
| 20260902024503 | 10 | 175 | 1.6 | 4.8 | 0.00 | 0.46 | 0.03 | 96 | 1002.4 |
| 20260902023603 | 10 | 175 | 1.6 | 9.7 | 0.00 | 0.46 | 0.03 | 96 | 1002.4 |
| 20260902022703 | 10 | 175 | 1.6 | 3.2 | 0.00 | 0.46 | 0.03 | 96 | 1002.3 |
| 20260902021803 | 10 | 175 | 1.6 | 4.8 | 0.00 | 0.46 | 0.03 | 96 | 1002.4 |
| 20260902020924 | 10 | 175 | 1.6 | 4.8 | 0.00 | 0.46 | 0.03 | 96 | 1002.4 |
| 20260902020003 | 10 | 174 | 1.6 | 8.0 | 0.00 | 0.46 | 0.03 | 96 | 1002.4 |
| 20260902015403 | 10 | 174 | 1.6 | 8.0 | 0.00 | 0.46 | 0.03 | 96 | 1002.4 |
| 20260902014503 | 10 | 173 | 1.6 | 8.0 | 0.00 | 0.46 | 0.03 | 96 | 1002.4 |
| 20260902013603 | 10 | 173 | 1.6 | 4.8 | 0.00 | 0.46 | 0.03 | 96 | 1002.5 |
| 20260902012703 | 10 | 173 | 1.6 | 3.2 | 0.00 | 0.46 | 0.03 | 96 | 1002.5 |
| 20260902011803 | 10 | 173 | 0.0 | 3.2 | 0.00 | 0.46 | 0.03 | 96 | 1002.6 |
| 20260902010903 | 10 | 173 | 1.6 | 4.8 | 0.00 | 0.46 | 0.03 | 96 | 1002.7 |
| 20260902010024 | 10 | 173 | 1.6 | 3.2 | 0.00 | 0.46 | 0.03 | 96 | 1002.6 |
| 20260902005403 | 10 | 173 | 1.6 | 4.8 | 0.00 | 0.46 | 0.03 | 96 | 1002.7 |
| 20260902004503 | 10 | 173 | 3.2 | 4.8 | 0.00 | 0.46 | 0.03 | 96 | 1002.7 |
| 20260902003603 | 10 | 173 | 1.6 | 4.8 | 0.00 | 0.46 | 0.03 | 96 | 1002.6 |
| 20260902002703 | 10 | 173 | 1.6 | 8.0 | 0.00 | 0.46 | 0.03 | 95 | 1002.7 |
| 20260902001803 | 10 | 173 | 3.2 | 4.8 | 0.00 | 0.46 | 0.03 | 96 | 1002.7 |
| 20260902000903 | 10 | 173 | 3.2 | 4.8 | 0.00 | 0.46 | 0.03 | 96 | 1002.7 |
| 20260902000003 | 10 | 173 | 1.6 | 4.8 | 0.00 | 0.46 | 0.03 | 96 | 1002.7 |
| 20260901235424 | 10 | 173 | 1.6 | 3.2 | 0.00 | 0.46 | 0.03 | 96 | 1002.7 |
| 20260901234503 | 10 | 173 | 1.6 | 3.2 | 0.00 | 0.46 | 0.03 | 96 | 1002.8 |
| 20260901233603 | 10 | 173 | 1.6 | 3.2 | 0.00 | 0.46 | 0.03 | 96 | 1002.8 |
| 20260901232703 | 10 | 173 | 1.6 | 4.8 | 0.00 | 0.46 | 0.03 | 96 | 1002.8 |
| 20260901231803 | 10 | 173 | 1.6 | 4.8 | 0.00 | 0.46 | 0.03 | 96 | 1002.9 |
| 20260901230903 | 10 | 173 | 3.2 | 8.0 | 0.00 | 0.46 | 0.03 | 96 | 1002.9 |
| 20260901230004 | 10 | 173 | 3.2 | 8.0 | 0.00 | 0.46 | 0.03 | 96 | 1003.0 |
| 20260901225403 | 10 | 190 | 3.2 | 8.0 | 0.00 | 0.46 | 0.03 | 96 | 1003.0 |
| 20260901224524 | 10 | 223 | 3.2 | 4.8 | 0.00 | 0.46 | 0.03 | 96 | 1003.0 |
| 20260901223603 | 10 | 223 | 1.6 | 4.8 | 0.03 | 0.46 | 0.03 | 96 | 1003.1 |
| 20260901222703 | 10 | 223 | 1.6 | 4.8 | 0.03 | 0.46 | 0.03 | 96 | 1003.1 |
| 20260901221803 | 10 | 223 | 1.6 | 4.8 | 0.03 | 0.46 | 0.03 | 96 | 1003.1 |
| 20260901220903 | 9 | 223 | 0.0 | 3.2 | 0.03 | 0.46 | 0.03 | 96 | 1003.1 |
| 20260901220003 | 9 | 223 | 1.6 | 4.8 | 0.03 | 0.46 | 0.03 | 95 | 1003.1 |
| 20260901215403 | 8 | 223 | 0.0 | 3.2 | 0.03 | 0.46 | 0.03 | 95 | 1003.2 |
| 20260901214503 | 8 | 0 | 0.0 | 0.0 | 0.03 | 0.46 | 0.03 | 94 | 1003.3 |
| 20260901213603 | 8 | 0 | 0.0 | 0.0 | 0.00 | 0.43 | 0.00 | 94 | 1003.3 |
| 20260901212703 | 8 | 0 | 0.0 | 0.0 | 0.00 | 0.43 | 0.00 | 94 | 1003.2 |
| 20260901211803 | 9 | 0 | 0.0 | 0.0 | 0.00 | 0.43 | 0.00 | 94 | 1003.3 |
| 20260901210924 | 9 | 0 | 0.0 | 0.0 | 0.00 | 0.43 | 0.00 | 93 | 1003.2 |
| 20260901210005 | 10 | 0 | 0.0 | 0.0 | 0.00 | 0.43 | 0.00 | 93 | 1003.3 |
| 20260901205403 | 10 | 0 | 0.0 | 0.0 | 0.00 | 0.43 | 0.43 | 93 | 1003.3 |
| 20260901204503 | 10 | 0 | 0.0 | 0.0 | 0.00 | 0.43 | 0.43 | 93 | 1003.3 |
| 20260901203624 | 11 | 223 | 0.0 | 4.8 | 0.00 | 0.43 | 0.43 | 93 | 1003.3 |
| 20260901202703 | 11 | 223 | 1.6 | 4.8 | 0.00 | 0.43 | 0.43 | 93 | 1003.3 |
| 20260901201803 | 11 | 223 | 0.0 | 4.8 | 0.00 | 0.43 | 0.43 | 93 | 1003.3 |
| 20260901200924 | 11 | 223 | 1.6 | 6.4 | 0.00 | 0.43 | 0.43 | 94 | 1003.3 |
| 20260901200003 | 12 | 223 | 1.6 | 6.4 | 0.00 | 0.43 | 0.43 | 94 | 1003.3 |
| 20260901195424 | 12 | 223 | 3.2 | 6.4 | 0.00 | 0.43 | 0.43 | 94 | 1003.3 |
| 20260901194503 | 12 | 223 | 1.6 | 6.4 | 0.00 | 0.43 | 0.43 | 93 | 1003.2 |
| 20260901193603 | 12 | 223 | 0.0 | 1.6 | 0.00 | 0.43 | 0.43 | 93 | 1003.2 |
| 20260901192703 | 12 | 223 | 1.6 | 4.8 | 0.00 | 0.43 | 0.43 | 93 | 1003.2 |
| 20260901191803 | 12 | 278 | 4.8 | 9.7 | 0.00 | 0.43 | 0.43 | 94 | 1003.2 |
| 20260901190903 | 13 | 276 | 1.6 | 11.3 | 0.00 | 0.43 | 0.43 | 95 | 1003.2 |
| 20260901190003 | 13 | 292 | 3.2 | 9.7 | 0.00 | 0.43 | 0.43 | 95 | 1003.2 |
| 20260901185424 | 13 | 313 | 3.2 | 6.4 | 0.00 | 0.43 | 0.43 | 94 | 1003.2 |
| 20260901184503 | 13 | 306 | 4.8 | 11.3 | 0.00 | 0.43 | 0.43 | 94 | 1003.1 |
| 20260901183603 | 13 | 304 | 4.8 | 8.0 | 0.00 | 0.43 | 0.43 | 94 | 1003.0 |
| 20260901182724 | 13 | 304 | 3.2 | 6.4 | 0.00 | 0.43 | 0.43 | 94 | 1003.1 |
| 20260901181803 | 12 | 304 | 3.2 | 4.8 | 0.00 | 0.43 | 0.43 | 93 | 1003.1 |
| 20260901180903 | 12 | 304 | 0.0 | 4.8 | 0.00 | 0.43 | 0.43 | 91 | 1003.2 |
| 20260901180024 | 13 | 0 | 0.0 | 0.0 | 0.00 | 0.43 | 0.43 | 91 | 1003.1 |
| 20260901175403 | 13 | 0 | 0.0 | 0.0 | 0.00 | 0.43 | 0.43 | 92 | 1003.0 |
| 20260901174503 | 14 | 304 | 0.0 | 4.8 | 0.00 | 0.43 | 0.43 | 92 | 1003.1 |
| 20260901173603 | 14 | 304 | 3.2 | 6.4 | 0.00 | 0.43 | 0.43 | 92 | 1002.9 |
| 20260901172703 | 15 | 304 | 3.2 | 4.8 | 0.00 | 0.43 | 0.43 | 92 | 1002.9 |
| 20260901171803 | 15 | 306 | 4.8 | 11.3 | 0.00 | 0.43 | 0.43 | 93 | 1002.8 |
| 20260901170903 | 15 | 297 | 4.8 | 9.7 | 0.00 | 0.43 | 0.43 | 93 | 1002.8 |
| 20260901170024 | 15 | 293 | 6.4 | 12.9 | 0.00 | 0.43 | 0.43 | 93 | 1002.8 |
| 20260901165403 | 15 | 293 | 6.4 | 14.5 | 0.00 | 0.43 | 0.43 | 92 | 1002.8 |
| 20260901164503 | 15 | 288 | 4.8 | 16.1 | 0.05 | 0.43 | 0.43 | 92 | 1002.7 |
| 20260901163603 | 15 | 262 | 1.6 | 9.7 | 0.43 | 0.43 | 0.43 | 93 | 1002.6 |
| 20260901162724 | 16 | 223 | 0.0 | 1.6 | 0.43 | 0.43 | 0.43 | 94 | 1002.7 |
| 20260901161803 | 15 | 0 | 0.0 | 0.0 | 0.43 | 0.43 | 0.43 | 93 | 1002.6 |
| 20260901160903 | 15 | 223 | 0.0 | 3.2 | 0.43 | 0.43 | 0.43 | 92 | 1002.6 |
| 20260901160003 | 15 | 222 | 1.6 | 4.8 | 0.43 | 0.43 | 0.43 | 90 | 1002.6 |
| 20260901155403 | 15 | 162 | 6.4 | 17.7 | 0.43 | 0.43 | 0.43 | 88 | 1002.6 |
| 20260901154503 | 16 | 182 | 9.7 | 37.0 | 0.38 | 0.38 | 0.38 | 84 | 1002.8 |
| 20260901153603 | 17 | 159 | 3.2 | 8.0 | 0.00 | 0.00 | 0.00 | 86 | 1002.6 |
| 20260901152703 | 17 | 152 | 3.2 | 8.0 | 0.00 | 0.00 | 0.00 | 85 | 1002.5 |
| 20260901151803 | 17 | 172 | 3.2 | 8.0 | 0.00 | 0.00 | 0.00 | 85 | 1002.5 |
| 20260901150904 | 17 | 178 | 3.2 | 6.4 | 0.00 | 0.00 | 0.00 | 85 | 1002.5 |
| 20260901150025 | 17 | 178 | 1.6 | 4.8 | 0.00 | 0.00 | 0.00 | 84 | 1002.5 |
| 20260901145404 | 17 | 178 | 3.2 | 4.8 | 0.00 | 0.00 | 0.00 | 84 | 1002.6 |
| 20260901144525 | 18 | 166 | 3.2 | 9.7 | 0.00 | 0.00 | 0.00 | 83 | 1002.6 |
| 20260901143604 | 17 | 155 | 1.6 | 8.0 | 0.00 | 0.00 | 0.00 | 83 | 1002.6 |
| 20260901142704 | 17 | 160 | 3.2 | 9.7 | 0.00 | 0.00 | 0.00 | 83 | 1002.7 |
| 20260901141804 | 18 | 160 | 4.8 | 11.3 | 0.00 | 0.00 | 0.00 | 83 | 1002.8 |
| 20260901140904 | 17 | 164 | 6.4 | 12.9 | 0.00 | 0.00 | 0.00 | 84 | 1002.8 |
| 20260901140025 | 17 | 178 | 4.8 | 12.9 | 0.00 | 0.00 | 0.00 | 83 | 1002.9 |
| 20260901135404 | 17 | 176 | 3.2 | 8.0 | 0.00 | 0.00 | 0.00 | 83 | 1002.9 |
| 20260901134504 | 17 | 197 | 3.2 | 8.0 | 0.00 | 0.00 | 0.00 | 85 | 1002.8 |
| 20260901133604 | 17 | 152 | 1.6 | 4.8 | 0.00 | 0.00 | 0.00 | 83 | 1002.8 |
| 20260901132704 | 17 | 159 | 3.2 | 9.7 | 0.00 | 0.00 | 0.00 | 85 | 1002.9 |
| 20260901131804 | 17 | 168 | 4.8 | 8.0 | 0.00 | 0.00 | 0.00 | 86 | 1003.0 |
| 20260901130904 | 17 | 172 | 4.8 | 9.7 | 0.00 | 0.00 | 0.00 | 86 | 1003.1 |
| 20260901130004 | 17 | 162 | 4.8 | 11.3 | 0.00 | 0.00 | 0.00 | 86 | 1003.0 |
| 20260901125404 | 17 | 165 | 4.8 | 12.9 | 0.00 | 0.00 | 0.00 | 86 | 1003.0 |
| 20260901124505 | 17 | 165 | 6.4 | 12.9 | 0.00 | 0.00 | 0.00 | 86 | 1003.1 |
| 20260901123604 | 17 | 164 | 3.2 | 9.7 | 0.00 | 0.00 | 0.00 | 87 | 1003.1 |
| 20260901122704 | 16 | 171 | 4.8 | 8.0 | 0.00 | 0.00 | 0.00 | 87 | 1003.2 |
| 20260901121804 | 16 | 164 | 4.8 | 9.7 | 0.00 | 0.00 | 0.00 | 86 | 1003.2 |
| 20260901120925 | 16 | 192 | 3.2 | 9.7 | 0.00 | 0.00 | 0.00 | 86 | 1003.2 |
| 20260901120004 | 16 | 196 | 1.6 | 4.8 | 0.00 | 0.00 | 0.00 | 86 | 1003.2 |
| 20260901115404 | 16 | 179 | 1.6 | 11.3 | 0.00 | 0.00 | 0.00 | 86 | 1003.2 |
| 20260901114504 | 16 | 190 | 3.2 | 8.0 | 0.00 | 0.00 | 0.00 | 86 | 1003.2 |
| 20260901113604 | 16 | 199 | 4.8 | 12.9 | 0.00 | 0.00 | 0.00 | 86 | 1003.2 |